EHI
0 0 0 0 0 0 0 0 0 0 0 0 0 0 0 0 0 0 0 0 0 0 0 0 0 0 0 0 0 1 2 3 3 3 2 2 3 3 3 1 0 0 0 0
0 0 0 0 0 0 0 0 0 0 0 0 0 0 0 0 0 0 0 0 0 0 0 0 0 0 0 0 0 0 1 2 3 3 1 1 2 2 2 1 0 0 0 0
0 0 0 0 0 0 0 0 0 0 0 0 0 0 0 0 0 0 0 0 0 0 0 0 0 0 0 0 0 0 0 1 2 2 1 0 1 1 1 1 0 0 0 0
0 0 0 0 0 0 0 0 0 0 0 0 0 0 0 0 0 0 0 0 0 0 0 0 0 0 0 0 0 0 0 0 1 1 0 0 0 0 0 0 0 0 0 0
0 0 0 0 0 0 0 0 0 0 0 0 0 0 0 0 0 0 0 0 0 0 0 0 0 0 0 0 0 0 0 0 0 0 0 0 0 0 0 0 0 0 0 0
0 0 0 0 0 0 0 0 0 0 0 0 0 0 0 0 0 0 0 0 0 0 0 0 0 0 0 0 0 0 0 0 0 0 0 0 0 0 0 0 0 0 0 0
0 0 0 0 0 0 0 0 0 0 0 0 0 0 0 0 0 0 0 0 0 0 0 0 0 0 0 0 0 0 0 0 0 0 0 0 0 0 0 0 0 0 0 0
0 0 0 0 0 0 0 0 0 0 0 0 0 0 0 0 0 0 0 0 0 0 0 0 0 0 0 0 0 0 0 0 0 0 0 0 0 0 0 0 0 0 0 0
0 0 0 0 0 0 0 0 0 0 0 0 0 0 0 0 0 0 0 0 0 0 0 0 0 0 0 0 0 0 0 0 0 0 0 0 0 0 0 0 0 0 0 0
0 0 0 0 0 0 0 0 0 0 0 0 0 0 0 0 0 0 0 0 0 0 0 0 0 0 0 0 0 0 0 0 0 0 0 0 0 0 0 0 0 0 0 0
0 0 0 0 0 0 0 0 0 0 0 0 0 0 0 0 0 0 0 0 0 0 0 0 0 0 0 0 0 0 0 0 0 0 0 0 0 0 0 0 0 0 0 0
0 0 0 0 0 0 0 0 0 0 0 0 0 0 0 0 0 0 0 0 0 0 0 0 0 0 0 0 0 0 0 0 0 0 0 0 0 0 0 0 0 0 0 0
0 0 0 0 0 0 0 0 0 0 0 0 0 0 0 0 0 0 0 0 0 0 0 0 0 0 0 0 0 0 0 0 0 0 0 0 0 0 0 0 0 0 0 0
0 0 0 0 0 0 0 0 0 0 0 0 0 0 0 0 0 0 0 0 0 0 0 0 0 0 0 0 0 0 0 0 0 0 0 0 0 0 0 0 0 0 0 0
0 0 0 0 0 0 0 0 0 0 0 0 0 0 0 0 0 0 0 0 0 0 0 0 0 0 0 0 0 0 0 0 0 0 0 0 0 0 0 0 0 0 0 0
0 0 0 0 0 0 0 0 0 0 0 0 0 0 0 0 0 0 0 0 0 0 0 0 0 0 0 0 0 0 0 0 0 0 0 0 0 0 0 0 0 0 0 0
0 0 0 0 0 0 0 0 0 0 0 0 0 0 0 0 0 0 0 0 0 0 0 0 0 0 0 0 0 0 0 0 0 0 0 0 0 0 0 0 0 0 0 0
0 0 0 0 0 0 0 0 0 0 0 0 0 0 0 0 0 0 0 0 0 0 0 0 0 0 0 0 0 0 0 0 0 0 0 0 0 0 0 0 0 0 0 0
0 0 0 0 0 0 0 0 0 0 0 0 0 0 0 0 0 0 0 0 0 0 0 0 0 0 0 0 0 0 0 0 0 0 0 0 0 0 0 0 0 0 0 0
0 0 0 0 0 0 0 0 0 0 0 0 0 0 0 0 0 0 0 0 0 0 0 0 0 0 0 0 0 0 0 0 0 0 0 0 0 0 0 0 0 0 0 0
0 0 0 0 0 0 0 0 0 0 0 0 0 0 0 0 0 0 0 0 0 0 0 0 0 0 0 0 0 0 0 0 0 0 0 0 0 0 0 0 0 0 0 0
0 0 0 0 0 0 0 0 0 0 0 0 0 0 0 0 0 0 0 0 0 0 0 0 0 0 0 0 0 0 0 0 0 0 0 0 0 0 0 0 0 0 0 0
0 0 0 0 0 0 0 0 0 0 0 0 0 0 0 0 0 0 0 0 0 0 0 0 0 0 0 0 0 0 0 0 0 0 0 0 0 0 0 0 0 0 0 0
0 0 0 0 0 0 0 0 0 0 0 0 0 0 0 0 0 0 0 0 0 0 0 0 0 0 0 0 0 0 0 0 0 0 0 0 0 0 0 0 0 0 0 0
0 0 0 0 0 0 0 0 0 0 0 0 0 0 0 0 0 0 0 0 0 0 0 0 0 0 0 0 0 0 0 0 0 0 0 0 0 0 0 0 0 0 0 0
0 0 0 0 0 0 0 0 0 0 0 0 0 0 0 0 0 0 0 0 0 0 0 0 0 0 0 0 0 0 0 0 0 0 0 0 0 0 0 0 0 0 0 0
Wind_Speed
2 4 7 9 8 6 6 5 5 6 4 3 6 8 9 7 5 6 7 7 7 8 7 6 6 6 6 6 6 6 5 4 4 2 2 2 2 1 1 1 2 2 2 2
2 7 8 5 5 4 5 5 4 3 2 3 5 9 8 7 7 8 8 8 8 6 4 5 5 5 6 7 7 6 6 5 5 3 3 2 2 2 2 1 1 2 2 2
6 5 4 5 4 5 6 7 6 4 1 1 1 6 6 5 4 4 5 6 7 8 7 7 6 6 6 6 7 6 6 5 4 3 2 1 1 1 0 1 1 2 2 2
4 3 3 5 5 5 6 5 4 4 2 3 3 4 7 4 4 5 5 5 6 6 6 6 7 7 7 6 5 5 5 5 4 4 4 4 3 2 2 2 2 2 2 2
3 2 5 5 5 4 4 2 3 3 3 1 2 3 8 2 5 8 6 5 6 5 6 7 7 7 6 5 5 4 4 4 4 4 5 4 2 2 1 1 1 2 2 2
1 1 2 3 2 3 2 3 2 2 3 4 7 6 8 5 7 6 6 5 5 4 4 5 5 5 4 4 4 4 4 3 4 4 4 4 4 2 1 1 2 2 2 2
2 2 1 1 2 1 3 5 2 0 1 7 4 5 8 5 5 6 7 6 4 4 4 5 5 5 4 4 4 4 4 3 3 3 4 4 4 4 4 3 3 2 1 2
2 3 2 0 2 4 4 5 6 6 6 3 2 7 5 4 3 1 2 2 2 3 3 4 5 5 5 4 4 4 4 3 3 3 3 3 3 3 2 3 2 3 2 2
3 3 2 2 1 4 3 3 3 3 2 2 4 4 4 4 4 4 2 2 2 2 2 3 4 4 4 4 3 4 4 3 3 3 2 2 2 2 2 2 2 2 2 2
3 1 3 3 2 2 2 3 3 3 3 3 3 3 3 2 2 2 1 1 1 1 2 2 3 3 3 3 2 2 4 3 3 2 2 1 2 2 2 1 1 2 2 2
2 2 2 1 1 2 2 1 2 2 3 4 3 4 2 3 3 2 1 1 2 2 2 2 2 2 2 2 2 2 2 2 2 2 1 1 2 1 1 1 2 2 2 2
1 3 1 3 2 2 1 3 4 3 3 3 2 4 3 1 1 2 1 2 2 3 3 2 2 2 2 2 1 1 1 2 2 2 1 1 1 1 1 1 2 1 1 1
2 4 2 3 3 2 1 2 2 2 2 3 3 5 3 5 4 3 3 3 3 4 4 4 3 3 2 1 1 1 1 1 1 1 1 1 1 1 2 2 2 1 1 1
2 2 4 7 5 3 3 4 3 3 3 3 5 4 4 4 3 2 2 2 3 3 3 3 3 2 2 1 1 1 1 1 1 1 1 1 2 2 2 2 2 1 1 1
3 1 2 3 3 2 3 4 4 5 5 6 5 4 5 3 2 1 1 2 3 3 2 2 2 2 2 2 2 2 1 1 1 1 1 2 2 2 1 1 1 1 1 1
2 1 0 2 2 2 3 4 5 5 4 5 4 6 3 1 1 2 1 2 2 1 1 1 2 2 2 2 2 2 2 2 1 1 2 1 1 1 1 1 1 1 0 1
1 2 1 2 3 2 4 5 6 4 4 5 7 7 1 0 2 4 3 2 1 1 1 1 1 2 2 2 2 2 2 2 1 1 1 1 0 1 1 1 1 1 1 0
3 3 1 0 2 3 6 2 3 4 3 2 3 2 2 2 2 2 2 2 1 1 1 1 1 2 2 2 2 2 2 1 1 1 1 1 1 1 1 0 0 1 1 1
4 4 2 2 2 6 5 2 1 3 3 2 3 3 2 1 2 1 1 0 1 2 1 1 1 2 2 1 2 2 2 1 1 1 1 1 1 1 0 0 0 1 0 1
3 3 3 2 3 5 4 4 3 2 3 3 2 2 1 1 1 4 1 1 0 1 1 1 1 2 1 1 1 1 1 1 2 2 2 2 1 1 1 1 0 1 0 0
1 1 2 3 3 5 5 6 2 3 5 4 2 1 2 3 4 2 0 1 1 1 1 1 1 1 1 1 1 1 1 2 3 2 2 2 1 0 1 1 0 1 1 1
2 2 2 3 3 6 3 2 1 3 3 3 2 1 1 1 1 1 1 1 1 1 1 1 1 1 1 1 1 1 2 2 2 2 1 1 1 1 1 1 1 1 2 2
2 4 3 4 4 3 1 1 2 2 2 3 2 2 1 1 1 1 1 1 1 1 1 1 1 1 2 1 1 1 2 2 2 2 2 2 2 2 2 2 2 2 1 1
3 1 1 2 3 3 2 3 4 3 3 3 2 1 1 1 1 1 1 1 1 1 1 1 2 2 2 2 2 2 2 2 1 2 2 2 2 2 2 2 2 1 1 1
4 1 1 3 4 3 3 3 4 4 4 3 3 2 1 1 1 1 1 1 1 1 1 1 1 1 2 2 2 2 2 2 2 2 2 2 2 2 2 2 2 1 1 1
2 3 3 4 4 3 4 3 3 3 3 3 3 3 3 1 1 1 1 1 1 1 1 1 1 1 2 2 2 2 2 1 1 1 1 1 1 1 2 2 3 5 5 5
Wind_Direction
162 161 199 200 197 198 182 185 212 232 228 201 231 246 249 250 231 225 226 220 215 214 212 194 180 170 161 160 161 165 162 167 154 151 157 170 201 223 225 221 214 210 205 202
117 223 218 195 195 196 205 213 232 266 240 212 244 260 253 241 224 214 214 215 213 212 202 188 174 165 165 168 169 168 169 172 173 175 178 184 188 214 217 224 232 221 208 209
200 221 187 186 200 207 222 207 207 216 308 303 262 287 264 257 232 230 220 210 204 196 195 188 176 171 166 170 175 176 176 175 175 165 141 105 73 36 357 258 246 240 223 220
226 232 179 187 206 196 229 215 201 193 160 244 172 264 274 246 251 241 233 220 213 206 193 184 175 175 178 183 176 173 174 170 171 161 160 165 175 195 220 224 236 258 241 235
231 199 174 193 219 203 215 198 197 199 175 239 211 220 278 245 244 243 236 226 220 207 191 182 174 175 175 170 166 169 167 171 169 168 173 177 189 204 227 233 233 246 257 250
259 271 172 203 231 196 139 90 52 53 106 238 215 188 268 231 226 235 230 221 211 195 177 171 164 151 147 150 153 158 161 174 175 173 176 182 186 187 180 230 234 249 261 262
353 324 337 114 83 12 107 110 89 21 219 241 197 188 247 252 243 225 220 219 204 176 161 160 151 145 144 144 159 163 162 169 175 177 187 192 191 186 192 206 217 235 254 267
136 251 272 313 167 184 199 155 164 186 205 254 189 216 252 298 301 283 206 194 165 159 156 159 161 156 156 155 158 163 166 169 178 182 197 200 190 191 207 214 218 224 233 242
153 249 316 322 319 145 156 195 178 141 173 216 238 259 306 353 3 18 46 86 117 145 149 153 152 151 153 157 164 173 173 173 184 188 195 198 197 202 215 226 226 232 246 246
131 206 299 318 27 26 151 152 114 139 168 221 255 247 255 278 290 358 52 103 112 97 94 128 144 151 151 155 155 161 168 176 184 190 199 210 219 221 221 217 237 247 250 243
99 130 312 5 171 183 107 110 122 155 179 170 216 257 241 224 209 194 196 151 146 125 103 113 125 133 121 104 106 118 155 153 171 195 209 214 233 233 216 226 242 243 246 247
123 115 252 264 276 262 189 175 151 164 229 207 193 260 332 350 103 103 92 76 84 83 70 72 82 87 83 83 85 93 124 167 190 201 205 222 241 230 224 240 249 241 244 244
133 113 72 346 333 337 263 219 184 163 149 180 191 258 347 31 45 56 83 73 66 68 61 53 54 58 59 59 57 58 40 228 223 207 200 224 257 242 239 238 242 243 244 259
78 134 175 198 224 199 244 251 211 165 187 216 227 249 319 356 17 29 66 83 80 65 62 51 41 33 29 24 16 10 348 326 265 216 204 226 248 246 246 244 243 240 231 237
82 160 224 262 260 204 234 244 219 202 201 202 235 235 265 255 228 208 102 83 75 59 41 31 19 9 7 2 351 337 321 319 307 254 233 242 252 254 261 247 241 236 228 244
62 130 324 302 273 239 276 263 232 233 224 228 250 264 265 245 102 108 111 101 85 54 358 340 345 347 339 335 327 322 309 306 307 270 269 273 258 254 242 245 237 214 233 269
154 134 111 272 318 8 282 242 213 217 215 196 226 244 224 143 177 179 173 168 182 225 251 272 279 278 286 288 291 289 293 309 314 298 289 287 257 258 239 233 226 214 215 228
165 140 145 217 49 239 246 234 208 218 243 229 237 253 213 213 209 184 168 173 207 251 249 265 296 310 304 309 319 318 326 336 337 322 307 289 250 255 261 226 231 259 241 221
174 152 151 160 211 270 288 289 205 203 256 246 246 292 325 33 52 328 306 161 214 232 251 258 258 299 306 320 335 345 352 358 351 316 309 299 263 231 196 147 303 288 243 184
112 118 139 158 185 237 269 298 288 145 279 310 257 243 245 85 210 254 301 344 5 9 5 360 352 350 345 336 349 15 355 353 324 302 295 298 286 202 180 198 238 353 48 144
103 114 177 195 220 261 286 307 12 143 259 311 305 237 205 214 231 242 312 347 33 32 16 23 42 16 336 339 10 19 358 330 315 316 322 333 331 276 177 158 79 69 63 71
181 174 193 170 206 258 316 21 143 245 301 326 327 330 334 316 0 29 39 29 40 39 32 35 45 9 356 9 29 10 337 324 333 345 359 5 2 16 66 94 80 74 83 83
212 198 195 195 218 273 289 259 299 319 316 321 333 338 20 12 340 347 1 30 35 44 48 33 61 24 360 3 25 358 327 339 1 23 18 17 30 42 59 84 84 69 70 89
283 266 197 255 281 302 317 340 348 345 329 327 347 350 7 4 348 348 1 32 35 1 24 27 53 34 358 356 6 357 343 355 36 42 23 16 44 53 53 58 63 71 63 92
251 252 235 259 285 319 318 323 330 341 354 13 9 359 358 21 351 347 355 358 5 359 4 15 42 13 342 358 13 9 7 29 49 47 34 29 45 69 63 57 49 60 48 83
231 210 207 237 245 236 269 296 332 349 345 345 355 355 352 356 337 346 345 338 355 2 357 11 14 3 348 3 16 8 8 41 71 54 36 35 53 70 76 75 53 43 49 52